| time (UTC) | temp C | wind direction | speed KPH | gust KPH | rain 1hr cm | rain 24hr cm | rain mn cm | humidity % | barometer mb |
| 20260902060109 | 15 | 180 | 1.6 | 8.0 | 0.00 | 0.66 | 0.00 | 87 | 1015.8 |
| 20260902054609 | 15 | 121 | 0.0 | 4.8 | 0.00 | 0.66 | 0.00 | 88 | 1015.7 |
| 20260902053109 | 15 | 233 | 0.0 | 3.2 | 0.00 | 0.66 | 0.00 | 89 | 1015.7 |
| 20260902051745 | 14 | 254 | 0.0 | 0.0 | 0.00 | 0.66 | 0.00 | 91 | 1015.5 |
| 20260902051609 | 14 | 254 | 0.0 | 0.0 | 0.00 | 0.66 | 0.00 | 91 | 1015.5 |
| 20260902050109 | 13 | 56 | 0.0 | 0.0 | 0.00 | 0.66 | 0.00 | 97 | 1015.3 |
| 20260902044758 | 11 | 72 | 0.0 | 0.0 | 0.00 | 0.66 | 0.00 | 97 | 1015.2 |
| 20260902044609 | 11 | 72 | 0.0 | 0.0 | 0.00 | 0.66 | 0.00 | 97 | 1015.2 |
| 20260902043207 | 11 | 318 | 0.0 | 0.0 | 0.03 | 0.66 | 0.00 | 97 | 1015.2 |
| 20260902043109 | 11 | 318 | 0.0 | 0.0 | 0.03 | 0.66 | 0.00 | 97 | 1015.2 |
| 20260902041609 | 11 | 318 | 0.0 | 0.0 | 0.03 | 0.66 | 0.00 | 97 | 1015.2 |
| 20260902040230 | 11 | 318 | 0.0 | 0.0 | 0.03 | 0.66 | 0.00 | 97 | 1015.2 |
| 20260902040109 | 11 | 318 | 0.0 | 0.0 | 0.03 | 0.66 | 0.00 | 97 | 1015.2 |
| 20260902034848 | 11 | 318 | 0.0 | 0.0 | 0.03 | 0.66 | 0.00 | 97 | 1015.2 |
| 20260902034609 | 11 | 318 | 0.0 | 0.0 | 0.03 | 0.66 | 0.00 | 97 | 1015.2 |
| 20260902033248 | 11 | 318 | 0.0 | 0.0 | 0.00 | 0.64 | 0.00 | 96 | 1015.1 |
| 20260902033109 | 11 | 318 | 0.0 | 0.0 | 0.00 | 0.64 | 0.00 | 96 | 1015.1 |
| 20260902031829 | 12 | 318 | 0.0 | 0.0 | 0.00 | 0.64 | 0.00 | 96 | 1015.1 |
| 20260902031609 | 12 | 318 | 0.0 | 0.0 | 0.00 | 0.64 | 0.00 | 96 | 1015.1 |
| 20260902030109 | 12 | 318 | 0.0 | 0.0 | 0.00 | 0.64 | 0.00 | 96 | 1015.0 |
| 20260902024609 | 13 | 320 | 0.0 | 0.0 | 0.00 | 0.64 | 0.00 | 95 | 1015.0 |
| 20260902023109 | 13 | 48 | 0.0 | 6.4 | 0.00 | 0.64 | 0.00 | 94 | 1015.0 |
| 20260902021608 | 13 | 282 | 1.6 | 6.4 | 0.00 | 0.64 | 0.00 | 93 | 1015.0 |
| 20260902020147 | 13 | 312 | 0.0 | 0.0 | 0.00 | 0.64 | 0.00 | 97 | 1014.9 |
| 20260902020108 | 13 | 312 | 0.0 | 0.0 | 0.00 | 0.64 | 0.00 | 97 | 1014.9 |
| 20260902014608 | 13 | 12 | 0.0 | 0.0 | 0.00 | 0.64 | 0.00 | 97 | 1014.9 |
| 20260902013108 | 14 | 12 | 0.0 | 0.0 | 0.00 | 0.64 | 0.00 | 97 | 1014.9 |
| 20260902011608 | 13 | 102 | 0.0 | 0.0 | 0.00 | 0.64 | 0.00 | 97 | 1014.8 |
| 20260902010108 | 13 | 54 | 0.0 | 0.0 | 0.00 | 0.64 | 0.00 | 97 | 1014.7 |
| 20260902004608 | 13 | 78 | 0.0 | 0.0 | 0.00 | 0.64 | 0.00 | 97 | 1014.7 |
| 20260902003108 | 13 | 78 | 0.0 | 0.0 | 0.00 | 0.64 | 0.00 | 97 | 1014.7 |
| 20260902001608 | 13 | 85 | 0.0 | 0.0 | 0.00 | 0.64 | 0.00 | 97 | 1014.7 |
| 20260902000108 | 14 | 342 | 0.0 | 0.0 | 0.00 | 0.64 | 0.00 | 97 | 1014.7 |
| 20260901234640 | 13 | 111 | 0.0 | 0.0 | 0.00 | 0.64 | 0.00 | 97 | 1014.7 |
| 20260901234608 | 13 | 111 | 0.0 | 0.0 | 0.00 | 0.64 | 0.00 | 97 | 1014.7 |
| 20260901233108 | 14 | 18 | 0.0 | 0.0 | 0.00 | 0.64 | 0.00 | 97 | 1014.6 |
| 20260901231608 | 14 | 15 | 0.0 | 0.0 | 0.00 | 0.64 | 0.00 | 97 | 1014.5 |
| 20260901230108 | 14 | 96 | 0.0 | 0.0 | 0.00 | 0.64 | 0.00 | 97 | 1014.6 |
| 20260901224608 | 14 | 96 | 0.0 | 0.0 | 0.00 | 0.64 | 0.00 | 97 | 1014.6 |
| 20260901223108 | 13 | 102 | 0.0 | 0.0 | 0.00 | 0.64 | 0.00 | 97 | 1014.7 |
| 20260901221608 | 13 | 96 | 0.0 | 0.0 | 0.00 | 0.64 | 0.00 | 96 | 1014.7 |
| 20260901220225 | 13 | 9 | 0.0 | 0.0 | 0.00 | 0.64 | 0.00 | 96 | 1014.6 |
| 20260901220108 | 13 | 9 | 0.0 | 0.0 | 0.00 | 0.64 | 0.00 | 96 | 1014.6 |
| 20260901214741 | 13 | 318 | 0.0 | 0.0 | 0.00 | 0.64 | 0.00 | 96 | 1014.6 |
| 20260901214608 | 13 | 318 | 0.0 | 0.0 | 0.00 | 0.64 | 0.00 | 96 | 1014.6 |
| 20260901213107 | 14 | 306 | 0.0 | 0.0 | 0.03 | 0.64 | 0.00 | 96 | 1014.4 |
| 20260901211607 | 15 | 4 | 0.0 | 0.0 | 0.03 | 0.64 | 0.00 | 96 | 1014.3 |
| 20260901210107 | 15 | 70 | 0.0 | 3.2 | 0.10 | 0.64 | 0.00 | 95 | 1014.4 |
| 20260901204607 | 15 | 49 | 0.0 | 1.6 | 0.10 | 0.64 | 0.00 | 94 | 1014.5 |
| 20260901203107 | 15 | 180 | 0.0 | 3.2 | 0.08 | 0.61 | 0.00 | 93 | 1014.2 |
| 20260901201607 | 16 | 180 | 0.0 | 4.8 | 0.05 | 0.58 | 0.00 | 86 | 1014.4 |
| 20260901200107 | 16 | 330 | 1.6 | 8.0 | 0.00 | 0.53 | 0.00 | 83 | 1014.3 |
| 20260901194607 | 15 | 264 | 1.6 | 9.7 | 0.00 | 0.53 | 0.00 | 88 | 1014.0 |
| 20260901193107 | 14 | 96 | 0.0 | 0.0 | 0.00 | 0.53 | 0.00 | 95 | 1013.7 |
| 20260901191607 | 14 | 48 | 0.0 | 0.0 | 0.00 | 0.53 | 0.00 | 95 | 1013.7 |
| 20260901190106 | 14 | 48 | 0.0 | 0.0 | 0.00 | 0.53 | 0.00 | 95 | 1013.6 |
| 20260901184637 | 15 | 48 | 0.0 | 0.0 | 0.00 | 0.53 | 0.00 | 95 | 1013.5 |
| 20260901184606 | 15 | 48 | 0.0 | 0.0 | 0.00 | 0.53 | 0.00 | 95 | 1013.5 |
| 20260901183106 | 15 | 9 | 0.0 | 0.0 | 0.00 | 0.53 | 0.00 | 94 | 1013.3 |
| 20260901181606 | 15 | 9 | 0.0 | 0.0 | 0.00 | 0.53 | 0.00 | 93 | 1013.2 |
| 20260901180104 | 15 | 324 | 0.0 | 0.0 | 0.00 | 0.53 | 0.00 | 92 | 1013.1 |
| 20260901174604 | 16 | 318 | 0.0 | 0.0 | 0.00 | 0.53 | 0.00 | 91 | 1013.0 |
| 20260901173104 | 16 | 6 | 0.0 | 0.0 | 0.00 | 0.53 | 0.00 | 88 | 1012.8 |
| 20260901171637 | 17 | 5 | 0.0 | 0.0 | 0.00 | 0.53 | 0.00 | 85 | 1012.7 |
| 20260901171604 | 17 | 5 | 0.0 | 0.0 | 0.00 | 0.53 | 0.00 | 85 | 1012.7 |
| 20260901170104 | 18 | 133 | 0.0 | 0.0 | 0.00 | 0.53 | 0.00 | 81 | 1012.6 |
| 20260901164603 | 19 | 208 | 0.0 | 3.2 | 0.00 | 0.53 | 0.00 | 76 | 1012.7 |
| 20260901163103 | 20 | 67 | 1.6 | 6.4 | 0.00 | 0.53 | 0.00 | 72 | 1012.7 |
| 20260901161603 | 20 | 174 | 1.6 | 8.0 | 0.00 | 0.53 | 0.00 | 71 | 1012.7 |
| 20260901160103 | 20 | 264 | 1.6 | 6.4 | 0.00 | 0.53 | 0.00 | 70 | 1012.6 |
| 20260901154603 | 20 | 337 | 3.2 | 9.7 | 0.00 | 0.53 | 0.00 | 68 | 1012.6 |
| 20260901153103 | 20 | 261 | 3.2 | 11.3 | 0.00 | 0.53 | 0.00 | 72 | 1012.5 |
| 20260901151603 | 20 | 282 | 3.2 | 11.3 | 0.00 | 0.53 | 0.00 | 70 | 1012.5 |
| 20260901150103 | 21 | 244 | 1.6 | 9.7 | 0.00 | 0.53 | 0.00 | 68 | 1012.5 |
| 20260901144603 | 20 | 259 | 1.6 | 8.0 | 0.00 | 0.53 | 0.00 | 70 | 1012.6 |
| 20260901143103 | 19 | 276 | 1.6 | 8.0 | 0.00 | 0.53 | 0.00 | 76 | 1012.8 |
| 20260901141603 | 18 | 246 | 0.0 | 4.8 | 0.00 | 0.53 | 0.00 | 83 | 1012.7 |
| 20260901140103 | 18 | 282 | 3.2 | 11.3 | 0.00 | 0.53 | 0.00 | 83 | 1012.7 |
| 20260901134603 | 19 | 238 | 4.8 | 11.3 | 0.00 | 0.53 | 0.00 | 81 | 1012.8 |
| 20260901133103 | 18 | 290 | 3.2 | 14.5 | 0.25 | 0.53 | 0.00 | 85 | 1012.8 |
| 20260901131603 | 17 | 282 | 1.6 | 6.4 | 0.30 | 0.53 | 0.00 | 90 | 1012.9 |
| 20260901124602 | 15 | 198 | 4.8 | 22.5 | 0.30 | 0.53 | 0.00 | 93 | 1013.0 |
| 20260901123134 | 16 | 282 | 6.4 | 24.1 | 0.08 | 0.30 | 0.00 | 87 | 1013.3 |
| 20260901123102 | 16 | 282 | 6.4 | 24.1 | 0.08 | 0.30 | 0.00 | 87 | 1013.3 |
| 20260901121600 | 20 | 249 | 4.8 | 14.5 | 0.00 | 0.23 | 0.00 | 73 | 1012.5 |
| 20260901120100 | 20 | 166 | 6.4 | 16.1 | 0.00 | 0.23 | 0.00 | 73 | 1012.6 |
| 20260901114600 | 20 | 199 | 4.8 | 14.5 | 0.00 | 0.23 | 0.00 | 76 | 1012.6 |
| 20260901113100 | 19 | 253 | 4.8 | 14.5 | 0.00 | 0.23 | 0.00 | 75 | 1012.7 |
| 20260901111600 | 18 | 30 | 6.4 | 16.1 | 0.00 | 0.23 | 0.00 | 78 | 1012.7 |
| 20260901110100 | 18 | 245 | 6.4 | 14.5 | 0.00 | 0.23 | 0.00 | 83 | 1012.7 |
| 20260901104600 | 18 | 288 | 3.2 | 14.5 | 0.00 | 0.23 | 0.00 | 84 | 1012.7 |
| 20260901103100 | 18 | 252 | 4.8 | 16.1 | 0.03 | 0.23 | 0.00 | 84 | 1012.5 |
| 20260901101600 | 17 | 286 | 3.2 | 11.3 | 0.08 | 0.23 | 0.00 | 88 | 1012.4 |
| 20260901100059 | 17 | 343 | 4.8 | 16.1 | 0.15 | 0.23 | 0.00 | 90 | 1012.4 |
| 20260901094559 | 16 | 264 | 3.2 | 9.7 | 0.15 | 0.23 | 0.00 | 92 | 1012.2 |
| 20260901093059 | 16 | 196 | 3.2 | 11.3 | 0.15 | 0.20 | 0.00 | 93 | 1012.2 |
| 20260901091558 | 17 | 207 | 3.2 | 9.7 | 0.03 | 0.08 | 0.00 | 89 | 1012.1 |
| 20260901090058 | 16 | 186 | 3.2 | 9.7 | 0.03 | 0.08 | 0.00 | 90 | 1012.0 |
| 20260901084558 | 17 | 26 | 4.8 | 14.5 | 0.00 | 0.05 | 0.00 | 84 | 1011.8 |
| 20260901083058 | 17 | 196 | 4.8 | 9.7 | 0.00 | 0.05 | 0.00 | 83 | 1011.8 |
| 20260901081558 | 16 | 199 | 3.2 | 11.3 | 0.00 | 0.05 | 0.00 | 87 | 1011.7 |
| 20260901080058 | 16 | 300 | 4.8 | 11.3 | 0.00 | 0.05 | 0.00 | 86 | 1011.7 |
| 20260901074558 | 16 | 288 | 6.4 | 14.5 | 0.00 | 0.05 | 0.00 | 88 | 1011.5 |
| 20260901073058 | 15 | 288 | 4.8 | 11.3 | 0.00 | 0.05 | 0.00 | 89 | 1011.2 |
| 20260901071558 | 15 | 300 | 3.2 | 14.5 | 0.00 | 0.05 | 0.00 | 92 | 1011.1 |
| 20260901070058 | 15 | 234 | 3.2 | 9.7 | 0.05 | 0.05 | 0.00 | 93 | 1010.9 |
| 20260901064558 | 15 | 243 | 1.6 | 9.7 | 0.05 | 0.05 | 0.00 | 94 | 1010.8 |
| 20260901063058 | 14 | 225 | 1.6 | 6.4 | 0.05 | 0.05 | 0.00 | 95 | 1010.6 |
| 20260901061558 | 14 | 207 | 1.6 | 8.0 | 0.03 | 0.03 | 0.00 | 93 | 1010.4 |